This is the latest recevied weather packets stored in our database for station/object WX4LTG. If no packets are shown the sender has not sent any weather packets the latest 10 day(s).
| Time | Temp. | Humidity | Pressure | Rain* | Wind** | Luminosity | Snow |
|---|---|---|---|---|---|---|---|
| 1777557653 | 19.44° C | 29% | 1010.7 hPa | 0 mm | - | 94 W/m² | - |
| 1777557349 | 18.89° C | 30% | 1010.5 hPa | 0 mm | - | 84 W/m² | - |
| 1777557045 | 18.89° C | 31% | 1010.3 hPa | 0 mm | - | 75 W/m² | - |
| 1777556741 | 18.89° C | 30% | 1010.5 hPa | 0 mm | - | 66 W/m² | - |
| 1777556438 | 18.89° C | 31% | 1010.5 hPa | 0 mm | - | 58 W/m² | - |
| 1777556138 | 18.89° C | 32% | 1010.4 hPa | 0 mm | - | 50 W/m² | - |
| 1777555833 | 18.33° C | 32% | 1010.5 hPa | 0 mm | - | 44 W/m² | - |
| 1777555529 | 17.78° C | 32% | 1010.5 hPa | 0 mm | - | 37 W/m² | - |
| 1777555226 | 17.78° C | 32% | 1010.4 hPa | 0 mm | - | 32 W/m² | - |
| 1777554923 | 16.67° C | 32% | 1010.5 hPa | 0 mm | - | 27 W/m² | - |
| 1777554620 | 16.67° C | 34% | 1010.4 hPa | 0 mm | - | 22 W/m² | - |
| 1777554316 | 16.67° C | 33% | 1010.3 hPa | 0 mm | - | 18 W/m² | - |
| 1777554014 | 16.11° C | 33% | 1010.2 hPa | 0 mm | - | 15 W/m² | - |
| 1777553710 | 16.11° C | 34% | 1010.4 hPa | 0 mm | - | 11 W/m² | - |
| 1777553407 | 16.11° C | 34% | 1010.2 hPa | 0 mm | - | 8 W/m² | - |
| 1777553103 | 16.11° C | 33% | 1010.2 hPa | 0 mm | - | 5 W/m² | - |
| 1777552803 | 15.56° C | 34% | 1010.2 hPa | 0 mm | - | 3 W/m² | - |
| 1777552499 | 15.56° C | 34% | 1010.1 hPa | 0 mm | - | 1 W/m² | - |
| 1777552195 | 16.11° C | 32% | 1010.3 hPa | 0 mm | - | 1 W/m² | - |
| 1777551892 | 16.67° C | 32% | 1010.3 hPa | 0 mm | - | 0 W/m² | - |
| 1777551590 | 16.67° C | 32% | 1010.2 hPa | 0 mm | - | 0 W/m² | - |
| 1777551287 | 16.67° C | 31% | 1010.3 hPa | 0 mm | - | 0 W/m² | - |
| 1777550983 | 16.67° C | 32% | 1010.1 hPa | 0 mm | - | 0 W/m² | - |
| 1777550681 | 16.67° C | 33% | 1010.1 hPa | 0 mm | - | 0 W/m² | - |
| 1777550376 | 16.67° C | 34% | 1010 hPa | 0 mm | - | 0 W/m² | - |
* Rain latest hour (hover to see other rain measurements)
** Current wind speed in m/s (hover to see current wind gust speed)